Location: Piotrkow Trybunalski
(51.4000°N, 19.6830°E)
Time: 01:10:50
(UTC+01:00)

A-11 Canister half - Pass Details

Date: 12 December 2023
Orbit: 1512 x 1687 km, 47.2° (Epoch: 23 February)

Event Time Altitude Azimuth Distance (km) Brightness Sun altitude
Exits shadow 04:36:38 32° 231° (SW) 2,554 9.7 -26.7°
Maximum altitude 04:37:39 33° 220° (SW) 2,533 9.8 -26.6°
Drops below altitude 10° 04:46:13 10° 162° (SSE) 3,937 11.4 -25.2°
Sets 04:49:48 0° 153° (SSE) 4,930 12.1 -24.7°
